STARLINK-1168, 45072

Orbit data source: Space-Track

STARLINK-1168, 45072 is a payload satellite owned by SpaceX/Seattle (US) in LEO that was launched on Wed, 29 Jan 2020 UTC via an FALCON 9 launch vehicle from the Air Force Eastern Test Range (AFETR). Payload-class satellites include a variety of spacecraft equipped with specific instruments for various scientific and technological missions. These include communications satellites like Starlink; space stations such as the ISS; scientific satellites like the Hubble; Earth observation satellites from companies like Planet Labs, Umbra, and HawkEye 360; GPS; miniature CubeSats for education and research; and military/defense satellites.

Loading next visibility...
Identifier
45072, 2020-006AE
Orbit
LEO
Country
Flag of USUS
Related business
Manufacturer
SpaceX/Seattle
Mission
Partially operational Commercial Communications
Bus & Motor
STARLINK, Unknown motor
Mass
260 kg wet, ~248 kg dry
Launch date (UTC)
2020-01-29 (6 years ago)
Launch vehicle
FALCON 9
Launch site
Air Force Eastern Test Range (AFETR)
Object type
Payload
Rocket body
Debris
Shape & HBR
Box + 1 Pan, 10.1 m
Radar Cross Section
13.562 m², Large (>1 m²)

Expand to show TLE details & history
Last TLE update: 18 hours ago

TLE from 18 hours ago
0 STARLINK-1168
1 45072U 20006AE  26144.25002315  .00074493  00000-0  22376-2 0  9990
2 45072  53.1566 266.4455 0002353 318.8219 170.5891 15.33778328  5871
Epoch: 2026-05-24T06:00Z
TLE epoch observation values (Epoch: 2026-05-24T06:00:02.000Z)
Latitude
38.31388°
Longitude
78.51311°
Altitude
469.376 km
Speed
7.636 km/s
True Right ascension
03h 21m 30s
True Declination
38° 08' 23"
Sunlit
Object was in daylight at epoch
Visualization orbit readout
Latitude
Unknown
Longitude
Unknown
Altitude
Unknown
Speed
Unknown
Apparent Right ascension
Unknown
Apparent Declination
Unknown
Sunlit
N/A
Visualization observer readout
Local Sidereal Time
09:36:14
Azimuth
Unknown
Elevation
Unknown
Doppler factor
Unknown
Orbital elements
Apogee altitude
466.419 km
Perigee altitude
463.199 km
Semi-major axis
6,842.946 km
Eccentricity
0.00024
Inclination
53.1566°
RAAN
266.4455°
Arg. of periapsis
318.8219°
True anomaly
170.59351°
Mean anomaly
170.5891°
Eccentric anomaly
170.5913°
Mean motion
3.83423 °/min
Orbital period
93.89 mins
BSTAR
0.0022376
Loading maneuver chart data...
Computing Atmospheric mass density...

Documentation

Showing up to 5 results
|